Location: Herm
(49.4830°N, 2.4500°W)
Time: 09:16:58
(UTC+01:00)

NOAA 15 - Visible Passes

Search period start: 28 October 2021 00:00
Search period end: 06 November 2021 23:00
Orbit: 798 x 811 km, 98.7° (Epoch: 27 October)

Date Brightness Start Highest point End Pass type
(mag) Time Alt. Az. Time Alt. Az. Time Alt. Az.
28 Oct 5.0 19:05:40 10° SE 19:10:36 41° ENE 19:15:35 10° N visible
28 Oct 6.2 20:45:41 10° SSW 20:50:27 34° W 20:55:17 10° NNW visible
29 Oct 8.1 07:19:13 10° ENE 07:19:57 10° E 07:20:41 10° E visible
29 Oct 5.5 18:41:12 10° ESE 18:45:36 27° ENE 18:50:03 10° N visible
29 Oct 5.3 20:19:55 10° S 20:25:06 53° W 20:30:20 10° NNW visible
30 Oct 6.0 18:17:07 10° E 18:20:42 19° NE 18:24:18 10° NNE visible
30 Oct 4.6 19:54:31 10° SSE 19:59:50 84° WSW 20:05:12 10° NNW visible
30 Oct 7.4 21:37:49 10° WSW 21:40:26 14° W 21:43:03 10° WNW visible
31 Oct 4.6 18:29:26 10° SSE 18:34:40 63° ENE 18:39:56 10° N visible
31 Oct 6.8 20:10:49 10° SW 20:14:53 22° W 20:18:58 10° NW visible
01 Nov 5.0 18:04:40 10° SE 18:09:36 40° ENE 18:14:33 10° N visible
01 Nov 6.1 19:44:37 10° SSW 19:49:26 34° W 19:54:17 10° NNW visible
02 Nov 5.5 17:40:12 10° ESE 17:44:36 27° ENE 17:49:01 10° N visible
02 Nov 5.3 19:18:53 10° S 19:24:05 55° W 19:29:18 10° NNW visible
03 Nov 6.0 17:16:09 10° E 17:19:42 18° NE 17:23:15 10° NNE visible
03 Nov 4.6 18:53:30 10° SSE 18:58:49 86° WSW 19:04:11 10° NNW visible
03 Nov 7.4 20:36:41 10° WSW 20:39:23 14° W 20:42:06 10° NW visible
04 Nov 4.6 18:28:25 10° SSE 18:33:39 62° ENE 18:38:54 10° N visible
04 Nov 6.8 20:09:44 10° SW 20:13:50 22° W 20:17:58 10° NW visible
05 Nov 5.0 18:03:40 10° SE 18:08:34 40° ENE 18:13:30 10° N visible
05 Nov 6.1 19:43:34 10° SSW 19:48:24 35° W 19:53:15 10° NNW visible
06 Nov 5.5 17:39:13 10° ESE 17:43:35 27° ENE 17:47:58 10° N visible
06 Nov 5.2 19:17:50 10° S 19:23:03 56° W 19:28:18 10° NNW visible
